GW0245 Weather Reports


Display with metric or nautical units.
time (UTC)temp
F
wind
direction
speed
MPH
gust
MPH
rain 1hr
in
rain 24hr
in
rain mn
in
humidity
%
barometer
mb
20260502181611 76 172 4.0 11.0 0.00 0.00 0.00 18 1018.4
20260502163056 73 56 1.0 6.0 0.00 0.00 0.00 23 1019.0
20260502161559 72 98 1.0 8.0 0.00 0.00 0.00 23 1018.8
20260502151606 68 342 0.0 3.0 0.00 0.00 0.00 23 1018.7
20260502140105 65 0 0.0 1.0 0.00 0.00 0.00 23 1018.2
20260502130105 55 291 0.0 3.0 0.00 0.00 0.00 31 1017.5
20260502123053 54 283 1.0 6.0 0.00 0.00 0.00 31 1017.2
20260502121558 55 0 0.0 4.0 0.00 0.00 0.00 30 1017.0
20260502114559 56 253 1.0 4.0 0.00 0.00 0.00 30 1017.0
20260502113056 56 270 2.0 6.0 0.00 0.00 0.00 31 1016.9
20260502111558 56 263 2.0 6.0 0.00 0.00 0.00 33 1016.9
20260502110100 54 0 0.0 3.0 0.00 0.00 0.00 35 1016.8
20260502104557 55 252 0.0 3.0 0.00 0.00 0.00 34 1016.8
20260502103101 57 0 0.0 3.0 0.00 0.00 0.00 31 1016.6
20260502101556 59 0 0.0 5.0 0.00 0.00 0.00 30 1016.6
20260502080106 59 236 2.0 5.0 0.00 0.00 0.00 28 1017.1
20260502070056 61 271 1.0 6.0 0.00 0.00 0.00 26 1016.8
20260502064603 62 215 0.0 3.0 0.00 0.00 0.00 26 1016.8
20260502063059 64 0 0.0 4.0 0.00 0.00 0.00 24 1016.7
20260502061555 62 219 3.0 6.0 0.00 0.00 0.00 26 1016.6
20260502060058 63 239 1.0 4.0 0.00 0.00 0.00 25 1016.4
20260502054559 65 190 0.0 2.0 0.00 0.00 0.00 24 1016.4
20260502053102 65 167 1.0 5.0 0.00 0.00 0.00 23 1016.3
20260502051603 65 206 1.0 4.0 0.00 0.00 0.00 24 1016.3
20260502044557 66 0 0.0 1.0 0.00 0.00 0.00 23 1016.2
20260502043100 67 0 0.0 3.0 0.00 0.00 0.00 23 1015.8
20260502041600 67 0 0.0 3.0 0.00 0.00 0.00 22 1015.7
20260502040107 68 0 0.0 1.0 0.00 0.00 0.00 21 1015.3
20260502034604 69 0 2.0 10.0 0.00 0.00 0.00 20 1015.0
20260502033056 70 30 5.0 10.0 0.00 0.00 0.00 19 1014.4
20260502031619 71 53 3.0 8.0 0.00 0.00 0.00 18 1014.1
20260502030104 72 0 3.0 9.0 0.00 0.00 0.00 17 1013.6
20260502024556 72 298 3.0 12.0 0.00 0.00 0.00 16 1013.0
20260502023059 73 321 4.0 11.0 0.00 0.00 0.00 16 1012.6
20260502021556 74 346 5.0 11.0 0.00 0.00 0.00 16 1012.2
20260502020111 75 336 3.0 8.0 0.00 0.00 0.00 13 1011.8
20260502014559 76 0 0.0 3.0 0.00 0.00 0.00 13 1011.6
20260502013100 77 0 0.0 3.0 0.00 0.00 0.00 12 1011.5
20260502011557 77 0 0.0 5.0 0.00 0.00 0.00 12 1011.4
20260502004558 76 0 2.0 8.0 0.00 0.00 0.00 13 1011.3
20260502003132 77 13 2.0 10.0 0.00 0.00 0.00 12 1011.3
20260502001632 77 324 3.0 8.0 0.00 0.00 0.00 12 1011.4
20260502000055 78 311 4.0 10.0 0.00 0.00 0.00 12 1011.2
20260501234600 78 235 4.0 11.0 0.00 0.00 0.00 11 1011.3
20260501233058 79 292 7.0 14.0 0.00 0.00 0.00 11 1011.2
20260501231558 79 277 5.0 11.0 0.00 0.00 0.00 11 1011.2
20260501230056 80 254 5.0 11.0 0.00 0.00 0.00 11 1011.3
20260501224603 81 0 3.0 15.0 0.00 0.00 0.00 10 1011.3
20260501223054 81 312 7.0 14.0 0.00 0.00 0.00 10 1011.3
20260501221556 80 304 1.0 12.0 0.00 0.00 0.00 11 1011.5
20260501220100 80 309 4.0 11.0 0.00 0.00 0.00 10 1011.6
20260501214559 81 326 5.0 13.0 0.00 0.00 0.00 10 1011.8
20260501213057 83 267 2.0 12.0 0.00 0.00 0.00 9 1012.0
20260501211555 80 167 3.0 12.0 0.00 0.00 0.00 12 1012.2
20260501210104 80 168 2.0 8.0 0.00 0.00 0.00 11 1012.2
20260501204555 82 111 3.0 10.0 0.00 0.00 0.00 11 1012.4
20260501203102 80 217 2.0 11.0 0.00 0.00 0.00 12 1012.4
20260501201556 81 103 3.0 7.0 0.00 0.00 0.00 12 1013.0
20260501200057 78 236 1.0 7.0 0.00 0.00 0.00 12 1013.2
20260501194557 76 0 3.0 8.0 0.00 0.00 0.00 13 1013.2
20260501193053 77 77 2.0 8.0 0.00 0.00 0.00 12 1013.5
20260501191555 77 130 3.0 9.0 0.00 0.00 0.00 13 1013.6
20260501190101 78 29 2.0 8.0 0.00 0.00 0.00 12 1013.6
20260501184553 78 108 4.0 10.0 0.00 0.00 0.00 13 1013.8
20260501183058 77 59 6.0 11.0 0.00 0.00 0.00 13 1014.1